When you browse on this site, cookies collect data to enhance your experience and personalize the content and advertising you see.
Visit our Privacy Policy to learn more. By continuing to use the site, you agree to this use of cookies and data.
  • In Denmark
  • List of Countries
  • For 7 days
  • Water Temperature
  • Satellite Maps
  • Weather Map
  • Weather Widgets
  • user-avatar
    Login

    Hourly Weather Hrazdan

    Today, 15 December, Saturday

    Time Temperature Precipitation Wind Pressure Humidity
    00:00 -6°C° 0 mm 2 mps 614 mmHg 75%
    01:00 -6°C° 0 mm 2 mps 614 mmHg 75%
    02:00 -6°C° 0 mm 2 mps 614 mmHg 75%
    03:00 -6°C° 0 mm 2 mps 614 mmHg 74%
    04:00 -6°C° 0 mm 2 mps 614 mmHg 74%
    05:00 -6°C° 0 mm 2 mps 614 mmHg 74%
    06:00 -6°C° 0 mm 2 mps 614 mmHg 74%
    07:00 -5°C° 0 mm 2 mps 614 mmHg 71%
    08:00 -5°C° 0 mm 2 mps 615 mmHg 69%
    09:00 -4°C° 0 mm 2 mps 615 mmHg 66%
    10:00 -3°C° 0 mm 2 mps 615 mmHg 64%
    11:00 -1°C° 0 mm 2 mps 615 mmHg 61%
    12:00 0°C° 0 mm 3 mps 615 mmHg 58%
    13:00 +1°C° 0 mm 2 mps 615 mmHg 58%
    14:00 +1°C° 0 mm 2 mps 615 mmHg 59%
    15:00 +1°C° 0 mm 2 mps 615 mmHg 59%
    16:00 -1°C° 0 mm 2 mps 615 mmHg 62%
    17:00 -2°C° 0 mm 2 mps 615 mmHg 64%
    18:00 -4°C° 0 mm 2 mps 615 mmHg 67%
    19:00 -4°C° 0 mm 2 mps 615 mmHg 66%
    20:00 -4°C° 0 mm 2 mps 615 mmHg 66%
    21:00 -4°C° 0 mm 2 mps 614 mmHg 65%
    22:00 -4°C° 0 mm 2 mps 614 mmHg 66%
    23:00 -4°C° 0 mm 2 mps 614 mmHg 66%

    Tomorrow, 16 December, Sunday

    Time Temperature Precipitation Wind Pressure Humidity
    00:00 -4°C° 0 mm 2 mps 614 mmHg 66%
    01:00 -4°C° 0 mm 2 mps 614 mmHg 67%
    02:00 -4°C° 0 mm 2 mps 614 mmHg 67%
    03:00 -4°C° 0 mm 2 mps 614 mmHg 68%
    04:00 -4°C° 0 mm 2 mps 614 mmHg 68%
    05:00 -4°C° 0 mm 2 mps 614 mmHg 69%
    06:00 -4°C° 0 mm 2 mps 614 mmHg 69%
    07:00 -3°C° 0 mm 2 mps 614 mmHg 67%
    08:00 -2°C° 0 mm 2 mps 614 mmHg 65%
    09:00 -2°C° 0 mm 2 mps 615 mmHg 63%
    10:00 +1°C° 0 mm 2 mps 615 mmHg 60%
    11:00 +2°C° 0 mm 2 mps 615 mmHg 58%
    12:00 +3°C° 0 mm 2 mps 615 mmHg 55%
    13:00 +3°C° 0 mm 2 mps 614 mmHg 56%
    14:00 +3°C° 0 mm 2 mps 614 mmHg 57%
    15:00 +3°C° 0 mm 2 mps 614 mmHg 58%
    16:00 +2°C° 0 mm 2 mps 614 mmHg 60%
    17:00 +1°C° 0 mm 2 mps 614 mmHg 62%
    18:00 -1°C° 0 mm 2 mps 614 mmHg 65%
    19:00 -1°C° 0 mm 2 mps 614 mmHg 65%
    20:00 0°C° 0 mm 1 mps 614 mmHg 65%
    21:00 0°C° 0 mm 1 mps 614 mmHg 65%
    22:00 0°C° 0 mm 1 mps 614 mmHg 65%
    23:00 0°C° 0 mm 1 mps 614 mmHg 65%

    Day after tomorrow, 17 December, Monday

    Time Temperature Precipitation Wind Pressure Humidity
    00:00 0°C° 0 mm 1 mps 614 mmHg 66%
    01:00 0°C° 0 mm 1 mps 614 mmHg 66%
    02:00 -1°C° 0 mm 1 mps 614 mmHg 66%
    03:00 -1°C° 0 mm 1 mps 614 mmHg 66%
    04:00 -1°C° 0 mm 1 mps 614 mmHg 66%
    05:00 -1°C° 0 mm 1 mps 613 mmHg 66%
    06:00 -2°C° 0 mm 1 mps 613 mmHg 66%
    07:00 -1°C° 0 mm 1 mps 613 mmHg 63%
    08:00 0°C° 0 mm 1 mps 614 mmHg 61%
    09:00 0°C° 0 mm 1 mps 614 mmHg 59%
    10:00 +1°C° 0 mm 1 mps 614 mmHg 57%
    11:00 +2°C° 0 mm 1 mps 614 mmHg 55%
    12:00 +2°C° 0 mm 2 mps 614 mmHg 53%
    13:00 +2°C° 0 mm 2 mps 613 mmHg 55%
    14:00 +3°C° 0 mm 1 mps 613 mmHg 57%
    15:00 +3°C° 0 mm 1 mps 612 mmHg 59%
    16:00 +1°C° 0 mm 1 mps 612 mmHg 64%
    17:00 0°C° 0 mm 1 mps 612 mmHg 68%
    18:00 -1°C° 0 mm 1 mps 612 mmHg 73%
    19:00 -1°C° 0 mm 1 mps 612 mmHg 73%
    20:00 -1°C° 0 mm 1 mps 612 mmHg 73%
    21:00 -1°C° 0 mm 1 mps 612 mmHg 73%
    22:00 -1°C° 0 mm 1 mps 612 mmHg 75%
    23:00 -1°C° 0 mm 1 mps 612 mmHg 77%

    18 December, Tuesday

    Time Temperature Precipitation Wind Pressure Humidity
    00:00 -1°C° 0 mm 1 mps 612 mmHg 80%
    01:00 -1°C° 0.2 mm 1 mps 612 mmHg 81%
    02:00 -1°C° 0.2 mm 1 mps 612 mmHg 83%
    03:00 -1°C° 0.2 mm 1 mps 612 mmHg 85%
    04:00 -1°C° 0.2 mm 1 mps 612 mmHg 85%
    05:00 -1°C° 0.2 mm 1 mps 612 mmHg 86%
    06:00 -1°C° 0.2 mm 1 mps 611 mmHg 86%
    07:00 -1°C° 0.3 mm 1 mps 612 mmHg 86%
    08:00 -1°C° 0.3 mm 1 mps 612 mmHg 85%
    09:00 -1°C° 0.3 mm 1 mps 612 mmHg 84%
    10:00 0°C° 0.3 mm 1 mps 612 mmHg 82%
    11:00 0°C° 0.3 mm 1 mps 612 mmHg 80%
    12:00 +1°C° 0.3 mm 1 mps 612 mmHg 78%
    13:00 +1°C° 0.2 mm 1 mps 611 mmHg 79%
    14:00 +1°C° 0.2 mm 1 mps 611 mmHg 79%
    15:00 +1°C° 0.2 mm 1 mps 611 mmHg 79%
    16:00 0°C° 0.1 mm 1 mps 611 mmHg 82%
    17:00 0°C° 0.1 mm 1 mps 611 mmHg 84%
    18:00 -2°C° 0.1 mm 0 mps 612 mmHg 87%
    19:00 -2°C° 0 mm 0 mps 612 mmHg 86%
    20:00 -2°C° 0 mm 1 mps 612 mmHg 86%
    21:00 -2°C° 0 mm 1 mps 612 mmHg 85%
    22:00 -2°C° 0 mm 1 mps 612 mmHg 85%
    23:00 -2°C° 0 mm 1 mps 612 mmHg 84%

    19 December, Wednesday

    Time Temperature Precipitation Wind Pressure Humidity
    00:00 -2°C° 0 mm 1 mps 612 mmHg 83%
    01:00 -3°C° 0 mm 1 mps 612 mmHg 83%
    02:00 -3°C° 0 mm 1 mps 612 mmHg 82%
    03:00 -3°C° 0 mm 1 mps 612 mmHg 82%
    04:00 -3°C° 0 mm 1 mps 612 mmHg 82%
    05:00 -5°C° 0 mm 2 mps 612 mmHg 82%
    06:00 -5°C° 0 mm 2 mps 612 mmHg 82%
    07:00 -4°C° 0 mm 2 mps 613 mmHg 80%
    08:00 -3°C° 0 mm 2 mps 613 mmHg 78%
    09:00 -3°C° 0 mm 2 mps 613 mmHg 75%
    10:00 -2°C° 0 mm 2 mps 613 mmHg 73%
    11:00 -1°C° 0 mm 3 mps 613 mmHg 71%
    12:00 0°C° 0 mm 3 mps 613 mmHg 68%
    13:00 0°C° 0 mm 3 mps 613 mmHg 69%
    14:00 0°C° 0 mm 3 mps 612 mmHg 70%
    15:00 0°C° 0 mm 3 mps 612 mmHg 71%
    16:00 -1°C° 0 mm 3 mps 612 mmHg 74%
    17:00 -2°C° 0 mm 2 mps 612 mmHg 77%
    18:00 -3°C° 0 mm 2 mps 612 mmHg 81%
    19:00 -3°C° 0.1 mm 2 mps 612 mmHg 80%
    20:00 -3°C° 0.1 mm 2 mps 612 mmHg 80%
    21:00 -3°C° 0.1 mm 2 mps 612 mmHg 80%
    22:00 -2°C° 0.2 mm 2 mps 612 mmHg 81%
    23:00 -2°C° 0.2 mm 2 mps 612 mmHg 82%

    20 December, Thursday

    Time Temperature Precipitation Wind Pressure Humidity
    00:00 -2°C° 0.2 mm 2 mps 611 mmHg 83%
    01:00 -2°C° 0.3 mm 2 mps 611 mmHg 84%
    02:00 -2°C° 0.3 mm 2 mps 611 mmHg 85%
    03:00 -2°C° 0.3 mm 2 mps 611 mmHg 87%
    04:00 -2°C° 0.3 mm 2 mps 611 mmHg 87%
    05:00 -2°C° 0.3 mm 2 mps 611 mmHg 87%
    06:00 -2°C° 0.3 mm 2 mps 611 mmHg 88%
    07:00 -2°C° 0.2 mm 2 mps 611 mmHg 87%
    08:00 -1°C° 0.2 mm 2 mps 611 mmHg 85%
    09:00 -1°C° 0.2 mm 2 mps 611 mmHg 84%
    10:00 -1°C° 0.2 mm 2 mps 611 mmHg 82%
    11:00 +1°C° 0.2 mm 2 mps 611 mmHg 80%
    12:00 +1°C° 0.2 mm 2 mps 611 mmHg 79%
    13:00 +1°C° 0.3 mm 2 mps 611 mmHg 79%
    14:00 +1°C° 0.3 mm 2 mps 611 mmHg 80%
    15:00 +1°C° 0.3 mm 2 mps 611 mmHg 80%
    16:00 -1°C° 0.2 mm 2 mps 611 mmHg 82%
    17:00 -1°C° 0.2 mm 2 mps 611 mmHg 84%
    18:00 0°C° 0.2 mm 1 mps 611 mmHg 85%
    19:00 0°C° 0.1 mm 1 mps 611 mmHg 85%
    20:00 0°C° 0.1 mm 1 mps 612 mmHg 84%
    21:00 0°C° 0.1 mm 1 mps 612 mmHg 84%
    22:00 -3°C° 0 mm 2 mps 612 mmHg 83%
    23:00 -3°C° 0 mm 2 mps 612 mmHg 82%
    Show more